• In Belgien
  • Länderverzeichnis
  • Für 7 Tage
  • Wassertemperatur
  • Satellitenkarten
  • Wetterkarte
  • Widgets
  • user-avatar
    Anmelden

    Stündliche Wetter Algier

    Heute, 17 August, Donnerstag

    Zeit Temperatur Niederschläge Wind Luftdruck Luftfeuchtigkeit
    00:00 +29°C° 0 mm 2 m/S 750 mmHg 83%
    01:00 +28°C° 0 mm 2 m/S 749 mmHg 84%
    02:00 +28°C° 0 mm 2 m/S 749 mmHg 85%
    03:00 +27°C° 0 mm 2 m/S 749 mmHg 86%
    04:00 +27°C° 0 mm 2 m/S 749 mmHg 85%
    05:00 +27°C° 0 mm 2 m/S 750 mmHg 85%
    06:00 +27°C° 0 mm 2 m/S 750 mmHg 85%
    07:00 +29°C° 0 mm 2 m/S 750 mmHg 75%
    08:00 +31°C° 0 mm 2 m/S 750 mmHg 64%
    09:00 +32°C° 0 mm 2 m/S 750 mmHg 54%
    10:00 +34°C° 0 mm 3 m/S 750 mmHg 51%
    11:00 +35°C° 0 mm 3 m/S 750 mmHg 47%
    12:00 +37°C° 0 mm 3 m/S 750 mmHg 44%
    13:00 +36°C° 0 mm 3 m/S 750 mmHg 45%
    14:00 +36°C° 0 mm 3 m/S 750 mmHg 47%
    15:00 +36°C° 0 mm 3 m/S 749 mmHg 49%
    16:00 +35°C° 0 mm 3 m/S 749 mmHg 53%
    17:00 +34°C° 0 mm 3 m/S 749 mmHg 57%
    18:00 +32°C° 0 mm 2 m/S 749 mmHg 61%
    19:00 +31°C° 0 mm 2 m/S 749 mmHg 65%
    20:00 +30°C° 0 mm 2 m/S 750 mmHg 69%
    21:00 +29°C° 0 mm 2 m/S 750 mmHg 74%
    22:00 +29°C° 0 mm 2 m/S 750 mmHg 74%
    23:00 +29°C° 0 mm 2 m/S 750 mmHg 75%

    Morgen, 18 August, Freitag

    Zeit Temperatur Niederschläge Wind Luftdruck Luftfeuchtigkeit
    00:00 +28°C° 0 mm 2 m/S 750 mmHg 75%
    01:00 +28°C° 0 mm 2 m/S 749 mmHg 75%
    02:00 +28°C° 0 mm 2 m/S 749 mmHg 75%
    03:00 +28°C° 0 mm 2 m/S 749 mmHg 75%
    04:00 +28°C° 0 mm 2 m/S 749 mmHg 71%
    05:00 +29°C° 0 mm 2 m/S 749 mmHg 68%
    06:00 +29°C° 0 mm 2 m/S 749 mmHg 65%
    07:00 +31°C° 0 mm 2 m/S 749 mmHg 57%
    08:00 +34°C° 0 mm 2 m/S 749 mmHg 49%
    09:00 +36°C° 0 mm 2 m/S 749 mmHg 41%
    10:00 +37°C° 0 mm 3 m/S 749 mmHg 39%
    11:00 +38°C° 0 mm 4 m/S 749 mmHg 36%
    12:00 +40°C° 0 mm 4 m/S 748 mmHg 34%
    13:00 +40°C° 0 mm 4 m/S 748 mmHg 35%
    14:00 +40°C° 0 mm 5 m/S 748 mmHg 36%
    15:00 +40°C° 0 mm 5 m/S 747 mmHg 37%
    16:00 +37°C° 0 mm 4 m/S 747 mmHg 40%
    17:00 +36°C° 0 mm 4 m/S 747 mmHg 43%
    18:00 +35°C° 0 mm 4 m/S 747 mmHg 46%
    19:00 +34°C° 0 mm 3 m/S 748 mmHg 49%
    20:00 +33°C° 0 mm 3 m/S 748 mmHg 53%
    21:00 +31°C° 0 mm 2 m/S 749 mmHg 56%
    22:00 +31°C° 0 mm 2 m/S 748 mmHg 57%
    23:00 +31°C° 0 mm 2 m/S 748 mmHg 58%

    übermorgen, 19 August, Samstag

    Zeit Temperatur Niederschläge Wind Luftdruck Luftfeuchtigkeit
    00:00 +30°C° 0 mm 2 m/S 748 mmHg 59%
    01:00 +30°C° 0 mm 2 m/S 748 mmHg 58%
    02:00 +30°C° 0 mm 2 m/S 748 mmHg 57%
    03:00 +30°C° 0 mm 2 m/S 748 mmHg 57%
    04:00 +29°C° 0 mm 3 m/S 748 mmHg 60%
    05:00 +29°C° 0 mm 4 m/S 748 mmHg 63%
    06:00 +29°C° 0 mm 4 m/S 749 mmHg 66%
    07:00 +30°C° 0 mm 4 m/S 749 mmHg 61%
    08:00 +33°C° 0 mm 5 m/S 749 mmHg 55%
    09:00 +34°C° 0 mm 5 m/S 750 mmHg 50%
    10:00 +35°C° 0 mm 5 m/S 750 mmHg 46%
    11:00 +36°C° 0 mm 6 m/S 750 mmHg 43%
    12:00 +38°C° 0 mm 7 m/S 750 mmHg 39%
    13:00 +38°C° 0 mm 7 m/S 749 mmHg 39%
    14:00 +38°C° 0 mm 7 m/S 749 mmHg 39%
    15:00 +38°C° 0 mm 6 m/S 749 mmHg 39%
    16:00 +36°C° 0 mm 7 m/S 749 mmHg 43%
    17:00 +35°C° 0 mm 7 m/S 749 mmHg 47%
    18:00 +33°C° 0 mm 7 m/S 749 mmHg 51%
    19:00 +32°C° 0 mm 7 m/S 750 mmHg 58%
    20:00 +30°C° 0 mm 7 m/S 751 mmHg 64%
    21:00 +29°C° 0 mm 7 m/S 751 mmHg 71%
    22:00 +28°C° 0 mm 6 m/S 751 mmHg 74%
    23:00 +27°C° 0 mm 6 m/S 751 mmHg 77%

    20 August, Sonntag

    Zeit Temperatur Niederschläge Wind Luftdruck Luftfeuchtigkeit
    00:00 +27°C° 0 mm 5 m/S 751 mmHg 80%
    01:00 +27°C° 0 mm 5 m/S 751 mmHg 80%
    02:00 +26°C° 0 mm 5 m/S 751 mmHg 81%
    03:00 +26°C° 0 mm 5 m/S 751 mmHg 82%
    04:00 +26°C° 0 mm 5 m/S 751 mmHg 81%
    05:00 +26°C° 0 mm 5 m/S 751 mmHg 81%
    06:00 +26°C° 0 mm 5 m/S 751 mmHg 80%
    07:00 +28°C° 0 mm 5 m/S 751 mmHg 70%
    08:00 +30°C° 0 mm 6 m/S 752 mmHg 60%
    09:00 +33°C° 0 mm 6 m/S 752 mmHg 49%
    10:00 +34°C° 0 mm 6 m/S 752 mmHg 45%
    11:00 +35°C° 0 mm 7 m/S 752 mmHg 41%
    12:00 +38°C° 0 mm 7 m/S 752 mmHg 37%
    13:00 +36°C° 0 mm 7 m/S 751 mmHg 37%
    14:00 +36°C° 0 mm 7 m/S 751 mmHg 37%
    15:00 +36°C° 0 mm 7 m/S 751 mmHg 38%
    16:00 +35°C° 0 mm 7 m/S 751 mmHg 40%
    17:00 +34°C° 0 mm 7 m/S 751 mmHg 41%
    18:00 +32°C° 0 mm 7 m/S 751 mmHg 43%
    19:00 +30°C° 0 mm 6 m/S 751 mmHg 47%
    20:00 +29°C° 0 mm 6 m/S 751 mmHg 51%
    21:00 +28°C° 0 mm 5 m/S 751 mmHg 55%
    22:00 +28°C° 0 mm 5 m/S 751 mmHg 56%
    23:00 +27°C° 0 mm 4 m/S 751 mmHg 57%

    21 August, Montag

    Zeit Temperatur Niederschläge Wind Luftdruck Luftfeuchtigkeit
    00:00 +27°C° 0 mm 4 m/S 751 mmHg 59%
    01:00 +26°C° 0 mm 4 m/S 751 mmHg 59%
    02:00 +26°C° 0 mm 4 m/S 750 mmHg 60%
    03:00 +26°C° 0 mm 4 m/S 750 mmHg 61%
    04:00 +26°C° 0 mm 4 m/S 750 mmHg 60%
    05:00 +26°C° 0 mm 4 m/S 751 mmHg 59%
    06:00 +26°C° 0 mm 4 m/S 751 mmHg 58%
    07:00 +28°C° 0 mm 4 m/S 751 mmHg 51%
    08:00 +29°C° 0 mm 4 m/S 751 mmHg 45%
    09:00 +32°C° 0 mm 4 m/S 751 mmHg 38%
    10:00 +33°C° 0 mm 4 m/S 751 mmHg 35%
    11:00 +34°C° 0 mm 4 m/S 751 mmHg 33%
    12:00 +36°C° 0 mm 4 m/S 750 mmHg 30%
    13:00 +35°C° 0 mm 4 m/S 750 mmHg 30%
    14:00 +35°C° 0 mm 4 m/S 750 mmHg 30%
    15:00 +35°C° 0 mm 4 m/S 749 mmHg 30%
    16:00 +34°C° 0 mm 4 m/S 749 mmHg 34%
    17:00 +33°C° 0 mm 4 m/S 749 mmHg 37%
    18:00 +30°C° 0 mm 4 m/S 749 mmHg 41%
    19:00 +29°C° 0 mm 3 m/S 749 mmHg 45%
    20:00 +28°C° 0 mm 3 m/S 750 mmHg 50%
    21:00 +27°C° 0 mm 3 m/S 750 mmHg 54%
    22:00 +26°C° 0 mm 2 m/S 750 mmHg 55%
    23:00 +26°C° 0 mm 2 m/S 750 mmHg 56%

    22 August, Dienstag

    Zeit Temperatur Niederschläge Wind Luftdruck Luftfeuchtigkeit
    00:00 +25°C° 0 mm 2 m/S 749 mmHg 57%
    01:00 +25°C° 0 mm 2 m/S 749 mmHg 56%
    02:00 +25°C° 0 mm 2 m/S 749 mmHg 56%
    03:00 +25°C° 0 mm 2 m/S 749 mmHg 55%
    04:00 +25°C° 0 mm 2 m/S 749 mmHg 54%
    05:00 +25°C° 0 mm 2 m/S 749 mmHg 53%
    06:00 +25°C° 0 mm 2 m/S 749 mmHg 51%
    07:00 +27°C° 0 mm 2 m/S 749 mmHg 43%
    08:00 +29°C° 0 mm 2 m/S 749 mmHg 35%
    09:00 +31°C° 0 mm 2 m/S 749 mmHg 27%
    10:00 +34°C° 0 mm 3 m/S 749 mmHg 24%
    11:00 +35°C° 0 mm 3 m/S 749 mmHg 22%
    12:00 +36°C° 0 mm 4 m/S 749 mmHg 20%
    13:00 +36°C° 0 mm 4 m/S 748 mmHg 23%
    14:00 +36°C° 0 mm 4 m/S 748 mmHg 25%
    15:00 +36°C° 0 mm 5 m/S 748 mmHg 28%
    16:00 +34°C° 0 mm 5 m/S 747 mmHg 33%
    17:00 +33°C° 0 mm 4 m/S 747 mmHg 38%
    18:00 +32°C° 0 mm 4 m/S 747 mmHg 43%
    19:00 +29°C° 0 mm 4 m/S 748 mmHg 49%
    20:00 +28°C° 0 mm 3 m/S 748 mmHg 54%
    21:00 +27°C° 0 mm 3 m/S 748 mmHg 59%
    22:00 +27°C° 0 mm 3 m/S 748 mmHg 60%
    23:00 +26°C° 0 mm 3 m/S 748 mmHg 60%
    Mehr zeigen